Total_Precipitation_Accumulation
0.00 0.01 0.02 0.02 0.02 0.04 0.07 0.12 0.20 0.28 0.24 0.34 0.44 0.53 0.67 0.83 1.06 1.10 1.17 1.27 1.52 1.82 2.23 2.95 3.59 4.15 4.84 5.61 6.19 6.09 5.49 5.03 4.56 4.14 3.67 3.64 3.50 3.26 3.05 2.82 2.60 2.54 2.41 2.22
0.01 0.03 0.03 0.03 0.03 0.04 0.07 0.11 0.18 0.23 0.20 0.21 0.37 0.65 0.79 0.85 1.03 0.99 0.99 1.04 1.24 1.61 2.22 2.98 3.57 3.79 3.84 4.12 4.36 3.86 3.67 3.70 3.42 3.26 3.26 3.20 3.08 2.80 2.61 2.53 2.65 2.33 2.27 2.19
0.03 0.04 0.03 0.03 0.04 0.05 0.09 0.12 0.14 0.22 0.22 0.28 0.44 0.85 1.05 0.95 0.97 0.83 0.81 1.03 1.49 1.92 2.34 2.85 3.02 3.03 2.94 2.91 2.90 2.67 2.63 2.96 3.00 3.08 3.14 3.15 3.13 2.97 2.75 2.51 2.55 2.23 2.02 2.01
0.02 0.03 0.03 0.05 0.05 0.05 0.08 0.08 0.06 0.09 0.18 0.42 0.59 1.06 1.30 1.19 1.13 0.86 0.89 1.28 1.78 2.09 2.34 2.31 1.90 1.76 1.91 2.01 2.14 2.40 2.50 2.65 2.61 2.78 2.75 2.67 2.45 2.32 2.22 2.17 2.28 2.33 2.11 1.97
0.03 0.03 0.04 0.05 0.05 0.04 0.06 0.05 0.04 0.08 0.18 0.46 0.75 1.21 1.47 1.35 1.13 0.88 0.85 0.91 1.29 1.44 1.39 1.25 1.11 1.15 1.39 1.66 1.94 2.30 2.42 2.46 2.39 2.38 2.52 2.71 2.61 2.60 2.46 2.34 2.55 2.55 2.53 2.27
0.04 0.04 0.04 0.04 0.03 0.04 0.05 0.07 0.13 0.22 0.41 0.89 0.98 1.10 1.41 1.28 1.06 0.92 0.79 0.70 0.90 0.94 0.77 0.81 0.93 1.14 1.39 1.54 1.70 1.96 2.10 2.29 2.32 2.37 2.50 2.54 2.59 2.74 2.67 2.57 2.44 2.32 2.34 2.29
0.10 0.09 0.07 0.04 0.04 0.04 0.04 0.07 0.28 0.64 0.95 1.11 0.84 0.98 1.33 0.99 0.79 0.67 0.55 0.48 0.50 0.58 0.66 0.82 0.93 1.15 1.28 1.36 1.40 1.58 1.63 1.82 2.01 2.12 2.21 2.30 2.44 2.56 2.51 2.57 2.48 2.34 2.14 2.05
0.15 0.14 0.09 0.04 0.05 0.05 0.05 0.05 0.13 0.26 0.39 0.61 0.79 1.20 1.31 0.91 0.61 0.47 0.43 0.42 0.42 0.50 0.60 0.66 0.78 0.89 0.99 1.18 1.39 1.51 1.47 1.50 1.56 1.61 1.78 1.96 2.04 2.16 2.21 2.49 2.39 2.30 2.19 2.10
0.05 0.05 0.05 0.04 0.05 0.04 0.05 0.04 0.05 0.08 0.12 0.38 0.84 1.14 1.10 0.76 0.59 0.53 0.52 0.53 0.53 0.55 0.66 0.66 0.68 0.84 0.91 0.89 1.01 1.21 1.29 1.32 1.35 1.39 1.51 1.59 1.62 1.77 2.00 2.06 1.93 1.80 1.91 2.03
0.03 0.02 0.03 0.03 0.04 0.04 0.05 0.05 0.05 0.07 0.13 0.29 0.67 1.19 1.46 1.16 0.83 0.65 0.69 0.62 0.57 0.53 0.58 0.70 0.75 0.79 0.81 0.80 0.97 1.13 1.25 1.33 1.34 1.32 1.35 1.28 1.42 1.54 1.72 1.80 1.80 1.71 1.68 1.86
0.02 0.02 0.03 0.03 0.05 0.06 0.06 0.06 0.07 0.09 0.10 0.19 0.50 0.82 0.89 1.00 0.85 0.63 0.66 0.62 0.56 0.51 0.52 0.64 0.68 0.74 0.72 0.70 0.82 1.00 1.20 1.28 1.19 1.22 1.25 1.33 1.40 1.57 1.64 1.62 1.68 1.70 1.72 1.87
0.02 0.02 0.02 0.05 0.07 0.07 0.08 0.09 0.10 0.11 0.13 0.14 0.26 0.45 0.51 0.58 0.69 0.89 0.85 0.70 0.67 0.64 0.56 0.61 0.65 0.69 0.65 0.65 0.73 0.84 1.03 1.18 1.22 1.21 1.28 1.37 1.45 1.53 1.60 1.54 1.64 1.82 1.87 1.92
0.03 0.03 0.04 0.12 0.17 0.15 0.12 0.11 0.11 0.11 0.12 0.12 0.24 0.45 0.47 0.47 0.51 0.64 0.77 0.83 0.72 0.59 0.59 0.62 0.72 0.68 0.62 0.64 0.70 0.84 1.10 1.30 1.47 1.51 1.47 1.45 1.41 1.47 1.59 1.66 1.72 1.84 1.96 2.05
0.03 0.04 0.04 0.10 0.18 0.22 0.21 0.17 0.14 0.11 0.10 0.10 0.16 0.35 0.45 0.56 0.62 0.59 0.71 0.85 0.71 0.55 0.56 0.67 0.77 0.82 0.87 0.87 0.89 1.03 1.21 1.27 1.38 1.38 1.36 1.43 1.47 1.59 1.75 1.83 1.90 1.96 1.99 2.05
0.03 0.03 0.03 0.03 0.06 0.14 0.21 0.20 0.14 0.10 0.08 0.10 0.12 0.22 0.38 0.59 0.72 0.78 0.81 0.85 0.74 0.64 0.69 0.74 0.83 0.90 0.98 1.05 1.04 1.04 1.13 1.15 1.27 1.58 1.71 1.85 1.86 1.89 2.00 2.09 2.08 2.14 2.15 2.12
0.06 0.05 0.04 0.04 0.06 0.09 0.13 0.17 0.13 0.10 0.10 0.11 0.14 0.25 0.39 0.63 0.71 0.78 0.76 0.77 0.74 0.76 0.79 0.88 0.92 0.98 1.02 1.09 1.19 1.24 1.24 1.27 1.47 1.90 2.18 2.30 2.33 2.35 2.39 2.44 2.46 2.49 2.47 2.60
0.12 0.11 0.09 0.06 0.08 0.11 0.16 0.15 0.15 0.13 0.13 0.17 0.23 0.33 0.44 0.60 0.78 0.89 0.79 0.66 0.67 0.70 0.75 0.84 1.00 1.12 1.15 1.20 1.28 1.37 1.43 1.49 1.63 1.92 2.13 2.23 2.33 2.43 2.59 2.64 2.66 2.66 2.69 2.72
0.20 0.21 0.18 0.13 0.14 0.21 0.21 0.22 0.24 0.23 0.24 0.27 0.39 0.51 0.56 0.61 0.72 0.77 0.67 0.63 0.67 0.72 0.84 0.95 1.00 1.17 1.29 1.40 1.54 1.75 1.90 2.01 2.05 2.16 2.35 2.45 2.42 2.46 2.53 2.53 2.48 2.51 2.64 2.67
0.26 0.29 0.27 0.25 0.24 0.24 0.28 0.33 0.34 0.35 0.46 0.52 0.65 0.78 0.84 0.82 0.80 0.92 0.82 0.76 0.76 0.89 1.04 1.23 1.38 1.41 1.51 1.63 1.77 1.92 2.16 2.30 2.34 2.31 2.45 2.57 2.66 2.73 2.63 2.52 2.54 2.58 2.64 2.52
0.30 0.35 0.41 0.36 0.41 0.44 0.41 0.45 0.44 0.49 0.87 0.82 0.88 1.00 1.06 1.13 1.37 1.38 1.09 1.06 0.98 0.98 1.10 1.23 1.41 1.54 1.60 1.77 1.87 1.95 2.09 2.19 2.28 2.29 2.35 2.49 2.60 2.77 2.89 2.82 2.81 2.77 2.69 2.59
0.47 0.50 0.46 0.47 0.53 0.54 0.50 0.48 0.53 0.98 1.38 1.16 1.10 1.16 1.26 1.41 1.45 1.32 1.16 1.21 1.22 1.08 1.06 1.11 1.21 1.40 1.50 1.59 1.70 1.86 1.95 1.95 2.05 2.10 2.10 2.27 2.50 2.69 2.82 2.93 2.93 2.94 2.86 2.75
0.72 0.75 0.70 0.67 0.86 0.97 0.67 0.60 0.91 1.24 1.21 1.33 1.26 1.26 1.36 1.41 1.42 1.41 1.39 1.36 1.28 1.18 1.09 1.12 1.21 1.32 1.39 1.54 1.78 1.97 2.01 2.00 2.02 2.09 2.21 2.33 2.53 2.62 2.63 2.72 2.79 2.92 2.90 2.84
0.98 1.04 1.05 1.06 1.20 1.10 0.81 0.86 0.97 1.01 1.19 1.29 1.31 1.32 1.36 1.37 1.35 1.29 1.23 1.22 1.27 1.21 1.21 1.18 1.21 1.35 1.54 1.74 1.97 2.20 2.22 2.26 2.30 2.33 2.40 2.46 2.52 2.61 2.67 2.69 2.69 2.70 2.68 2.58
1.06 0.91 1.11 1.36 1.51 1.29 1.10 1.04 1.09 1.18 1.31 1.41 1.52 1.57 1.47 1.35 1.26 1.28 1.29 1.25 1.31 1.31 1.28 1.25 1.25 1.34 1.54 1.66 1.77 2.00 2.16 2.22 2.38 2.38 2.30 2.28 2.27 2.33 2.39 2.47 2.48 2.46 2.40 2.34
1.16 1.16 1.35 1.74 1.95 1.81 1.59 1.38 1.32 1.40 1.65 1.81 1.79 1.71 1.63 1.59 1.53 1.59 1.56 1.44 1.36 1.33 1.35 1.35 1.41 1.48 1.51 1.54 1.60 1.72 1.88 2.02 2.23 2.33 2.32 2.34 2.33 2.33 2.36 2.44 2.49 2.34 2.25 2.26
1.13 1.42 1.74 2.07 2.02 2.10 1.98 1.61 1.56 1.59 1.75 1.88 1.82 1.81 1.86 1.85 1.75 1.61 1.54 1.49 1.45 1.42 1.45 1.50 1.56 1.58 1.55 1.53 1.62 1.74 1.88 2.09 2.33 2.35 2.25 2.26 2.32 2.38 2.43 2.47 2.53 2.55 2.32 2.26